Regional Weather Roundup
Issued by NWS

Home | Current Version | Previous Version | Text Only | Print | Product List | Glossary Off
Versions: 1 2 3 4 5 6 7 8 9 10 11 12 13 14 15 16 17 18 19 20 21 22 23 24 25 26 27 28 29 30 31 32 33 34 35 36 37 38 39 40 41 42 43 44 45 46 47 48 49 50

000
ASUS44 KMEG 300110
RWRTN
TENNESSEE HOURLY STATE WEATHER ROUNDUP
NATIONAL WEATHER SERVICE MEMPHIS TN
800 PM CDT WED JUL 29 2015

TNZ002-004-019-021-049-052-054-088>092-300200-
WEST TENNESSEE

CITY           SKY/WX    TMP DP  RH WIND       PRES   REMARKS
MEMPHIS INTL   PTCLDY    92  75  57 NW7       29.98R HX 103
NWS MEMPHIS      N/A     89 N/A N/A MISG        N/A
JACKSON        MOCLDY    87  73  62 N3        29.99R HX  94
DYERSBURG        N/A    N/A N/A N/A MISG        N/A
PARIS          CLOUDY    75  72  88 N3        30.03R
$$

TNZ008-025-027-028-033-062-065-066-300200-
NORTH MIDDLE TENNESSEE

CITY           SKY/WX    TMP DP  RH WIND       PRES   REMARKS
NASHVILLE      PTCLDY    87  77  72 W6        29.98R HX  99
CLARKSVILLE    TSTM      75  70  84 NE5       29.97F
SMYRNA         PTCLDY    89  78  70 W7        29.99R HX 102
CROSSVILLE     MOCLDY    82  73  74 CALM      30.06S
$$

TNZ061-075-076-078-094-096-097-300200-
SOUTH MIDDLE TENNESSEE

CITY           SKY/WX    TMP DP  RH WIND       PRES   REMARKS
FAYETTEVILLE   CLEAR     82  73  74 CALM      30.01R
TULLAHOMA      CLEAR     84  75  74 CALM      30.02S HX  92
WINCHESTER     CLEAR     84  75  74 CALM      30.01R HX  92
MCMINNVILLE    CLEAR     84  81  89 CALM      30.01S HX  98
COLUMBIA       CLEAR     88  82  84 CALM      29.99R HX 108
SHELBYVILLE    CLEAR     88  79  74 W6        30.01R HX 102
$$

TNZ017-018-042-046-047-300200-
NORTHEAST TENNESSEE

CITY           SKY/WX    TMP DP  RH WIND       PRES   REMARKS
TRI CITIES     PTCLDY    84  71  65 W5        30.01S
ELIZABETHTON   DRIZZLE   75  72  88 CALM      30.03R
$$

TNZ012-013-036-069-073-074-300200-
CENTRAL EAST TENNESSEE

CITY           SKY/WX    TMP DP  RH WIND       PRES   REMARKS
KNOXVILLE      CLOUDY    86  71  60 CALM      29.97F HX  91
OAK RIDGE      PTCLDY    85  75  72 CALM      29.99F HX  93
GATLINBURG     CLEAR     81  72  74 CALM      29.98S
MORRISTOWN       N/A     84  73  70 CALM      30.02S HX  91
$$

TNZ083-085-099-300200-
SOUTHEAST TENNESSEE

CITY           SKY/WX    TMP DP  RH WIND       PRES   REMARKS
CHATTANOOGA    MOCLDY    86  73  65 NE6       29.97R HX  93
$$

SKY/WX REPORTED AS FAIR MEANS FEW OR NO CLOUDS BELOW
12 THOUSAND FEET.




USA.gov is the U.S. government's official web portal to all federal, state and local government web resources and services.